CZ-6A DEB, 61421

Orbit data source: Space-Track

CZ-6A DEB, 61421 is space debris in LEO originally from a launch on Tue, 06 Aug 2024 UTC launched from the Taiyaun Space Center, China (TSC). Debris objects in space refer to the collection of defunct objects orbiting the Earth. Examples of debris include non-operational satellites, rocket bodies, and fragments generated from explosions, collisions, or faulty payload assembly.

Loading next visibility...
Identifier
61421, 2024-140YN
Orbit
LEO
Country
Flag of CNCN / PRC
Related business
Manufacturer
SAST
Mission
Spacecraft
Bus & Motor
Unknown
Mass
Unknown
Launch date (UTC)
2024-08-06 (1 year ago)
Launch vehicle
Unknown
Launch site
Taiyaun Space Center, China (TSC)
Object type
Payload
Rocket body
Debris
Shape & HBR
Unknown shape, 0.1 m
Radar Cross Section
Small (<0.1 m²)

Expand to show TLE details & history
Last TLE update: 8 hours ago

TLE from 8 hours ago
0 CZ-6A DEB
1 61421U 24140YN  25350.93183925  .00002175  00000-0  10353-2 0  9999
2 61421  89.1507 304.2406 0069561  78.4454 282.4534 14.17789142 65647
Epoch: 2025-12-16T22:21Z
TLE epoch observation values (Epoch: 2025-12-16T22:21:50.911Z)
Latitude
0.00002°
Longitude
-117.03049°
Altitude
825.404 km
Speed
7.446 km/s
True Right ascension
20h 16m 57s
True Declination
0° 00' 00"
Sunlit
Object was in daylight at epoch
Visualization orbit readout
Latitude
Unknown
Longitude
Unknown
Altitude
Unknown
Speed
Unknown
Apparent Right ascension
Unknown
Apparent Declination
Unknown
Sunlit
N/A
Visualization observer readout
Local Sidereal Time
05:30:07
Azimuth
Unknown
Elevation
Unknown
Doppler factor
Unknown
Orbital elements
Apogee altitude
879.932 km
Perigee altitude
779.654 km
Semi-major axis
7,207.93 km
Eccentricity
0.00696
Inclination
89.1507°
RAAN
304.2406°
Arg. of periapsis
78.4454°
True anomaly
281.67361°
Mean anomaly
282.4534°
Eccentric anomaly
282.06365°
Mean motion
3.54672 °/min
Orbital period
101.5 mins
BSTAR
0.0010353
Loading maneuver chart data...
Computing Atmospheric mass density...

Documentation

Showing up to 5 results
|